{"data":{"norad_id":53524,"intl_designator":"2022-100C","name":"YAOGAN-35 04B","alt_names":[],"object_type":"PAYLOAD","status":"ACTIVE","operator":null,"country":"PRC","launch_date":"2022-08-19","launch_site_code":"XICLF","launch_vehicle":null,"mission":null,"orbit_class":"UNKNOWN","rcs_meters":null,"size_class":null,"mass_kg":null,"dimensions":null,"purposes":[],"wikipedia_slug":null,"has_3d_model":false,"image_url":null,"decayed_at":null,"tle_current":{"epoch":"2026-09-20T22:38:38.893344Z","epoch_age_seconds":105333,"freshness":"FRESH","line1":"1 53524U 22100C   26263.94350571  .00009672  00000+0  25334-3 0  9990","line2":"2 53524  35.0001 131.9489 0002502  70.7463 289.3527 15.37899886119978","mean_motion":15.37899886,"eccentricity":0.0002502,"inclination_deg":35.0001,"raan_deg":131.9489,"arg_perigee_deg":70.7463,"mean_anomaly_deg":289.3527,"bstar":0.00025334,"rev_number":11997,"period_min":93.63418341524,"perigee_km":450.61159372876,"apogee_km":454.0295546989,"semimajor_km":6830.4575742138,"source":"CELESTRAK","updated_at":"2026-09-21T09:00:09.084576Z"}}}